When you browse on this site, cookies collect data to enhance your experience and personalize the content and advertising you see.
Visit our Privacy Policy to learn more. By continuing to use the site, you agree to this use of cookies and data.
  • En España
  • Lista de países
  • Para 7 días
  • Temperatura del agua
  • El tiempo en el mapa
  • Informadores
  • user-avatar
    Iniciar sesión

    Tiempo cada hora Verbovka

    Hoy, 6 Junio, Sábado

    Tiempo Temperatura Precipitaciones Viento Presión Humedad
    00:00 +10°C° 0 mm 3 mps 737 mmHg 93%
    01:00 +10°C° 0 mm 3 mps 737 mmHg 94%
    02:00 +10°C° 0 mm 3 mps 737 mmHg 96%
    03:00 +11°C° 0 mm 3 mps 736 mmHg 96%
    04:00 +11°C° 0 mm 3 mps 736 mmHg 96%
    05:00 +12°C° 0 mm 4 mps 736 mmHg 96%
    06:00 +14°C° 0 mm 4 mps 736 mmHg 93%
    07:00 +15°C° 0 mm 4 mps 736 mmHg 90%
    08:00 +17°C° 0 mm 5 mps 736 mmHg 87%
    09:00 +19°C° 0.3 mm 4 mps 737 mmHg 87%
    10:00 +19°C° 0.3 mm 4 mps 737 mmHg 87%
    11:00 +20°C° 0.3 mm 3 mps 737 mmHg 86%
    12:00 +20°C° 1.1 mm 4 mps 737 mmHg 87%
    13:00 +20°C° 1.1 mm 4 mps 738 mmHg 87%
    14:00 +21°C° 1.1 mm 4 mps 738 mmHg 87%
    15:00 +21°C° 0.4 mm 4 mps 738 mmHg 87%
    16:00 +21°C° 0.4 mm 4 mps 738 mmHg 86%
    17:00 +21°C° 0.4 mm 4 mps 738 mmHg 86%
    18:00 +20°C° 0.1 mm 3 mps 738 mmHg 89%
    19:00 +19°C° 0.1 mm 2 mps 738 mmHg 92%
    20:00 +18°C° 0.1 mm 2 mps 739 mmHg 94%
    21:00 +17°C° 0 mm 2 mps 739 mmHg 94%
    22:00 +16°C° 0 mm 2 mps 740 mmHg 94%
    23:00 +15°C° 0 mm 2 mps 740 mmHg 94%

    Mañana, 7 Junio, Domingo

    Tiempo Temperatura Precipitaciones Viento Presión Humedad
    00:00 +15°C° 0 mm 2 mps 741 mmHg 94%
    01:00 +14°C° 0 mm 1 mps 741 mmHg 94%
    02:00 +14°C° 0 mm 1 mps 742 mmHg 94%
    03:00 +14°C° 0 mm 1 mps 742 mmHg 93%
    04:00 +14°C° 0 mm 1 mps 742 mmHg 92%
    05:00 +14°C° 0 mm 1 mps 742 mmHg 91%
    06:00 +16°C° 0 mm 1 mps 743 mmHg 87%
    07:00 +19°C° 0 mm 1 mps 743 mmHg 82%
    08:00 +21°C° 0 mm 1 mps 743 mmHg 77%
    09:00 +22°C° 0 mm 1 mps 744 mmHg 72%
    10:00 +23°C° 0 mm 1 mps 744 mmHg 67%
    11:00 +25°C° 0 mm 1 mps 744 mmHg 62%
    12:00 +25°C° 0 mm 1 mps 744 mmHg 60%
    13:00 +25°C° 0 mm 1 mps 744 mmHg 59%
    14:00 +26°C° 0 mm 1 mps 744 mmHg 57%
    15:00 +26°C° 0 mm 1 mps 743 mmHg 61%
    16:00 +26°C° 0 mm 2 mps 743 mmHg 64%
    17:00 +25°C° 0 mm 2 mps 743 mmHg 68%
    18:00 +24°C° 0 mm 2 mps 743 mmHg 72%
    19:00 +21°C° 0 mm 2 mps 743 mmHg 77%
    20:00 +20°C° 0 mm 2 mps 743 mmHg 82%
    21:00 +19°C° 0 mm 2 mps 743 mmHg 85%
    22:00 +18°C° 0 mm 2 mps 743 mmHg 88%
    23:00 +18°C° 0 mm 2 mps 743 mmHg 91%

    Pasado mañana, 8 Junio, Lunes

    Tiempo Temperatura Precipitaciones Viento Presión Humedad
    00:00 +17°C° 0 mm 2 mps 743 mmHg 93%
    01:00 +17°C° 0 mm 2 mps 743 mmHg 94%
    02:00 +17°C° 0 mm 2 mps 743 mmHg 95%
    03:00 +17°C° 0 mm 2 mps 743 mmHg 95%
    04:00 +18°C° 0 mm 2 mps 743 mmHg 95%
    05:00 +18°C° 0 mm 2 mps 743 mmHg 95%
    06:00 +20°C° 0 mm 2 mps 743 mmHg 91%
    07:00 +21°C° 0 mm 2 mps 743 mmHg 87%
    08:00 +24°C° 0 mm 2 mps 743 mmHg 84%
    09:00 +25°C° 0.1 mm 3 mps 744 mmHg 80%
    10:00 +26°C° 0.1 mm 3 mps 744 mmHg 77%
    11:00 +27°C° 0.1 mm 3 mps 744 mmHg 74%
    12:00 +27°C° 1.1 mm 3 mps 744 mmHg 74%
    13:00 +27°C° 1.1 mm 3 mps 743 mmHg 75%
    14:00 +27°C° 1.1 mm 2 mps 743 mmHg 75%
    15:00 +27°C° 1.3 mm 2 mps 743 mmHg 76%
    16:00 +27°C° 1.3 mm 1 mps 743 mmHg 77%
    17:00 +27°C° 1.3 mm 1 mps 743 mmHg 78%
    18:00 +25°C° 0.3 mm 1 mps 743 mmHg 81%
    19:00 +24°C° 0.3 mm 1 mps 743 mmHg 85%
    20:00 +22°C° 0.3 mm 1 mps 743 mmHg 88%
    21:00 +22°C° 0.1 mm 1 mps 743 mmHg 90%
    22:00 +21°C° 0.1 mm 1 mps 743 mmHg 91%
    23:00 +20°C° 0.1 mm 1 mps 743 mmHg 93%

    9 Junio, Martes

    Tiempo Temperatura Precipitaciones Viento Presión Humedad
    00:00 +20°C° 0.1 mm 1 mps 743 mmHg 93%
    01:00 +20°C° 0.1 mm 1 mps 743 mmHg 93%
    02:00 +19°C° 0.1 mm 1 mps 743 mmHg 94%
    03:00 +20°C° 0.1 mm 1 mps 743 mmHg 94%
    04:00 +20°C° 0.1 mm 1 mps 743 mmHg 94%
    05:00 +20°C° 0.1 mm 1 mps 743 mmHg 94%
    06:00 +21°C° 0 mm 1 mps 743 mmHg 90%
    07:00 +23°C° 0 mm 1 mps 744 mmHg 85%
    08:00 +24°C° 0 mm 1 mps 744 mmHg 81%
    09:00 +25°C° 0 mm 1 mps 744 mmHg 77%
    10:00 +26°C° 0 mm 1 mps 744 mmHg 72%
    11:00 +27°C° 0 mm 1 mps 744 mmHg 67%
    12:00 +28°C° 0.3 mm 1 mps 744 mmHg 67%
    13:00 +28°C° 0.3 mm 1 mps 743 mmHg 66%
    14:00 +28°C° 0.3 mm 1 mps 743 mmHg 66%
    15:00 +27°C° 0.6 mm 1 mps 743 mmHg 72%
    16:00 +27°C° 0.6 mm 2 mps 743 mmHg 78%
    17:00 +26°C° 0.6 mm 2 mps 743 mmHg 84%
    18:00 +25°C° 0.2 mm 2 mps 743 mmHg 87%
    19:00 +24°C° 0.2 mm 2 mps 743 mmHg 89%
    20:00 +23°C° 0.2 mm 2 mps 743 mmHg 92%
    21:00 +21°C° 0 mm 2 mps 743 mmHg 94%
    22:00 +20°C° 0 mm 2 mps 743 mmHg 95%
    23:00 +20°C° 0 mm 2 mps 743 mmHg 96%

    10 Junio, Miércoles

    Tiempo Temperatura Precipitaciones Viento Presión Humedad
    00:00 +19°C° 0 mm 2 mps 743 mmHg 97%
    01:00 +19°C° 0 mm 2 mps 743 mmHg 97%
    02:00 +18°C° 0 mm 2 mps 743 mmHg 97%
    03:00 +18°C° 0 mm 2 mps 743 mmHg 97%
    04:00 +19°C° 0 mm 3 mps 743 mmHg 97%
    05:00 +19°C° 0 mm 3 mps 743 mmHg 97%
    06:00 +20°C° 0 mm 3 mps 743 mmHg 94%
    07:00 +21°C° 0 mm 3 mps 743 mmHg 90%
    08:00 +22°C° 0 mm 3 mps 743 mmHg 87%
    09:00 +24°C° 0.1 mm 3 mps 743 mmHg 83%
    10:00 +25°C° 0.1 mm 3 mps 743 mmHg 78%
    11:00 +26°C° 0.1 mm 3 mps 743 mmHg 73%
    12:00 +26°C° 0.1 mm 3 mps 742 mmHg 71%
    13:00 +27°C° 0.1 mm 3 mps 742 mmHg 69%
    14:00 +27°C° 0.1 mm 3 mps 742 mmHg 67%
    15:00 +27°C° 0.2 mm 3 mps 742 mmHg 70%
    16:00 +27°C° 0.2 mm 3 mps 741 mmHg 73%
    17:00 +26°C° 0.2 mm 3 mps 741 mmHg 76%
    18:00 +25°C° 0.1 mm 3 mps 741 mmHg 81%
    19:00 +23°C° 0.1 mm 2 mps 741 mmHg 86%
    20:00 +21°C° 0.1 mm 2 mps 741 mmHg 90%
    21:00 +20°C° 0 mm 2 mps 741 mmHg 92%
    22:00 +19°C° 0 mm 2 mps 741 mmHg 93%
    23:00 +18°C° 0 mm 2 mps 741 mmHg 95%

    11 Junio, Jueves

    Tiempo Temperatura Precipitaciones Viento Presión Humedad
    00:00 +18°C° 0 mm 2 mps 741 mmHg 95%
    01:00 +18°C° 0 mm 2 mps 741 mmHg 96%
    02:00 +17°C° 0 mm 2 mps 741 mmHg 96%
    03:00 +17°C° 0 mm 2 mps 740 mmHg 96%
    04:00 +18°C° 0 mm 2 mps 740 mmHg 96%
    05:00 +18°C° 0 mm 2 mps 740 mmHg 95%
    06:00 +19°C° 0 mm 2 mps 740 mmHg 91%
    07:00 +21°C° 0 mm 2 mps 740 mmHg 86%
    08:00 +23°C° 0 mm 2 mps 740 mmHg 82%
    09:00 +24°C° 0.1 mm 2 mps 740 mmHg 78%
    10:00 +25°C° 0.1 mm 2 mps 740 mmHg 75%
    11:00 +26°C° 0.1 mm 2 mps 740 mmHg 71%
    12:00 +27°C° 1 mm 2 mps 739 mmHg 70%
    13:00 +27°C° 1 mm 2 mps 739 mmHg 68%
    14:00 +28°C° 1 mm 2 mps 739 mmHg 67%
    15:00 +28°C° 0.2 mm 2 mps 739 mmHg 68%
    16:00 +28°C° 0.2 mm 2 mps 739 mmHg 69%
    17:00 +28°C° 0.2 mm 2 mps 738 mmHg 70%
    18:00 +26°C° 0.1 mm 1 mps 738 mmHg 75%
    19:00 +24°C° 0.1 mm 1 mps 738 mmHg 81%
    20:00 +23°C° 0.1 mm 1 mps 738 mmHg 86%
    21:00 +22°C° 0 mm 1 mps 738 mmHg 88%
    22:00 +21°C° 0 mm 1 mps 738 mmHg 89%
    23:00 +20°C° 0 mm 1 mps 738 mmHg 90%
    Mostrar más